EN

Hourly Weather Algiers

Today, 7 March, Sunday

Time Temperature Precipitation Wind Pressure Humidity
00:00 +15°C° 0 mm 2 mps 751 mmHg 81%
01:00 +15°C° 0 mm 2 mps 751 mmHg 80%
02:00 +15°C° 0 mm 1 mps 750 mmHg 79%
03:00 +15°C° 0 mm 1 mps 750 mmHg 78%
04:00 +15°C° 0.1 mm 1 mps 750 mmHg 80%
05:00 +14°C° 0.1 mm 2 mps 750 mmHg 82%
06:00 +13°C° 0 mm 3 mps 750 mmHg 83%
07:00 +16°C° 0 mm 3 mps 750 mmHg 76%
08:00 +17°C° 0 mm 3 mps 750 mmHg 69%
09:00 +18°C° 0 mm 3 mps 750 mmHg 62%
10:00 +19°C° 0.2 mm 3 mps 750 mmHg 59%
11:00 +20°C° 0.2 mm 3 mps 749 mmHg 56%
12:00 +21°C° 0.2 mm 3 mps 749 mmHg 53%
13:00 +20°C° 1 mm 3 mps 749 mmHg 58%
14:00 +19°C° 1 mm 3 mps 748 mmHg 62%
15:00 +18°C° 1 mm 2 mps 747 mmHg 67%
16:00 +18°C° 0.5 mm 2 mps 747 mmHg 70%
17:00 +17°C° 0.5 mm 2 mps 747 mmHg 74%
18:00 +16°C° 0.5 mm 2 mps 747 mmHg 78%
19:00 +16°C° 0 mm 2 mps 747 mmHg 78%
20:00 +16°C° 0 mm 1 mps 747 mmHg 78%
21:00 +15°C° 0 mm 1 mps 747 mmHg 78%
22:00 +15°C° 0 mm 1 mps 747 mmHg 78%
23:00 +15°C° 0 mm 2 mps 747 mmHg 77%

Tomorrow, 8 March, Monday

Time Temperature Precipitation Wind Pressure Humidity
00:00 +15°C° 0 mm 2 mps 747 mmHg 77%
01:00 +15°C° 0.1 mm 2 mps 746 mmHg 77%
02:00 +15°C° 0.1 mm 2 mps 746 mmHg 77%
03:00 +15°C° 0.1 mm 1 mps 745 mmHg 77%
04:00 +15°C° 0.2 mm 2 mps 745 mmHg 78%
05:00 +14°C° 0.2 mm 2 mps 745 mmHg 79%
06:00 +14°C° 0.2 mm 2 mps 745 mmHg 81%
07:00 +14°C° 0.1 mm 3 mps 746 mmHg 77%
08:00 +16°C° 0.1 mm 3 mps 746 mmHg 73%
09:00 +17°C° 0.1 mm 3 mps 746 mmHg 69%
10:00 +16°C° 0.2 mm 5 mps 746 mmHg 72%
11:00 +15°C° 0.2 mm 6 mps 746 mmHg 74%
12:00 +15°C° 0.2 mm 8 mps 746 mmHg 77%
13:00 +15°C° 0.1 mm 8 mps 746 mmHg 76%
14:00 +15°C° 0.1 mm 8 mps 746 mmHg 74%
15:00 +15°C° 0.1 mm 8 mps 745 mmHg 73%
16:00 +14°C° 0 mm 7 mps 746 mmHg 76%
17:00 +14°C° 0 mm 6 mps 746 mmHg 79%
18:00 +13°C° 0 mm 5 mps 746 mmHg 82%
19:00 +13°C° 0 mm 4 mps 746 mmHg 82%
20:00 +12°C° 0 mm 4 mps 747 mmHg 83%
21:00 +12°C° 0 mm 4 mps 747 mmHg 84%
22:00 +12°C° 0 mm 4 mps 747 mmHg 84%
23:00 +12°C° 0 mm 4 mps 747 mmHg 83%

Day after tomorrow, 9 March, Tuesday

Time Temperature Precipitation Wind Pressure Humidity
00:00 +12°C° 0 mm 4 mps 748 mmHg 83%
01:00 +11°C° 0.1 mm 4 mps 747 mmHg 83%
02:00 +11°C° 0.1 mm 4 mps 747 mmHg 83%
03:00 +11°C° 0.1 mm 4 mps 747 mmHg 82%
04:00 +11°C° 0.1 mm 3 mps 747 mmHg 82%
05:00 +11°C° 0.1 mm 3 mps 748 mmHg 82%
06:00 +11°C° 0.1 mm 3 mps 748 mmHg 82%
07:00 +12°C° 0.5 mm 3 mps 748 mmHg 79%
08:00 +13°C° 0.5 mm 3 mps 749 mmHg 77%
09:00 +13°C° 0.5 mm 3 mps 749 mmHg 75%
10:00 +14°C° 0.5 mm 3 mps 749 mmHg 74%
11:00 +14°C° 0.5 mm 3 mps 749 mmHg 73%
12:00 +16°C° 0.5 mm 3 mps 749 mmHg 72%
13:00 +14°C° 0.3 mm 4 mps 749 mmHg 73%
14:00 +14°C° 0.3 mm 4 mps 749 mmHg 74%
15:00 +14°C° 0.3 mm 4 mps 748 mmHg 75%
16:00 +13°C° 0 mm 4 mps 749 mmHg 76%
17:00 +13°C° 0 mm 4 mps 749 mmHg 77%
18:00 +12°C° 0 mm 4 mps 749 mmHg 78%
19:00 +12°C° 0 mm 3 mps 750 mmHg 79%
20:00 +12°C° 0 mm 3 mps 750 mmHg 79%
21:00 +11°C° 0 mm 3 mps 751 mmHg 80%
22:00 +11°C° 0 mm 3 mps 751 mmHg 81%
23:00 +11°C° 0 mm 3 mps 751 mmHg 81%

10 March, Wednesday

Time Temperature Precipitation Wind Pressure Humidity
00:00 +10°C° 0 mm 3 mps 751 mmHg 82%
01:00 +10°C° 0 mm 3 mps 751 mmHg 82%
02:00 +10°C° 0 mm 3 mps 751 mmHg 83%
03:00 +10°C° 0 mm 2 mps 751 mmHg 83%
04:00 +10°C° 0 mm 2 mps 752 mmHg 83%
05:00 +10°C° 0 mm 2 mps 752 mmHg 83%
06:00 +9°C° 0 mm 2 mps 752 mmHg 83%
07:00 +12°C° 0 mm 2 mps 753 mmHg 80%
08:00 +13°C° 0 mm 2 mps 753 mmHg 76%
09:00 +13°C° 0 mm 3 mps 754 mmHg 72%
10:00 +14°C° 0 mm 3 mps 754 mmHg 67%
11:00 +14°C° 0 mm 3 mps 754 mmHg 62%
12:00 +15°C° 0 mm 4 mps 754 mmHg 57%
13:00 +15°C° 0 mm 4 mps 754 mmHg 57%
14:00 +15°C° 0 mm 4 mps 754 mmHg 57%
15:00 +15°C° 0 mm 4 mps 754 mmHg 57%
16:00 +14°C° 0 mm 4 mps 754 mmHg 61%
17:00 +13°C° 0 mm 4 mps 754 mmHg 65%
18:00 +12°C° 0 mm 3 mps 754 mmHg 69%
19:00 +12°C° 0 mm 3 mps 755 mmHg 70%
20:00 +11°C° 0 mm 3 mps 756 mmHg 72%
21:00 +11°C° 0 mm 3 mps 757 mmHg 73%
22:00 +11°C° 0 mm 3 mps 757 mmHg 71%
23:00 +10°C° 0 mm 2 mps 757 mmHg 69%

11 March, Thursday

Time Temperature Precipitation Wind Pressure Humidity
00:00 +10°C° 0 mm 2 mps 757 mmHg 67%
01:00 +10°C° 0 mm 2 mps 757 mmHg 66%
02:00 +10°C° 0 mm 2 mps 756 mmHg 64%
03:00 +10°C° 0 mm 2 mps 756 mmHg 63%
04:00 +9°C° 0 mm 2 mps 756 mmHg 61%
05:00 +10°C° 0 mm 1 mps 756 mmHg 59%
06:00 +10°C° 0 mm 1 mps 756 mmHg 58%
07:00 +12°C° 0 mm 1 mps 756 mmHg 54%
08:00 +13°C° 0 mm 2 mps 757 mmHg 50%
09:00 +15°C° 0 mm 2 mps 757 mmHg 47%
10:00 +15°C° 0 mm 2 mps 757 mmHg 45%
11:00 +16°C° 0 mm 3 mps 757 mmHg 43%
12:00 +17°C° 0 mm 3 mps 757 mmHg 40%
13:00 +17°C° 0 mm 3 mps 756 mmHg 43%
14:00 +17°C° 0 mm 4 mps 756 mmHg 45%
15:00 +17°C° 0 mm 4 mps 755 mmHg 47%
16:00 +16°C° 0 mm 3 mps 755 mmHg 53%
17:00 +13°C° 0 mm 3 mps 755 mmHg 59%
18:00 +12°C° 0 mm 3 mps 755 mmHg 65%
19:00 +12°C° 0 mm 3 mps 755 mmHg 64%
20:00 +13°C° 0 mm 2 mps 755 mmHg 64%
21:00 +12°C° 0 mm 2 mps 756 mmHg 64%
22:00 +12°C° 0 mm 2 mps 755 mmHg 62%
23:00 +12°C° 0 mm 2 mps 755 mmHg 60%

12 March, Friday

Time Temperature Precipitation Wind Pressure Humidity
00:00 +12°C° 0 mm 1 mps 755 mmHg 58%
01:00 +12°C° 0 mm 1 mps 754 mmHg 57%
02:00 +12°C° 0 mm 1 mps 754 mmHg 56%
03:00 +12°C° 0 mm 1 mps 753 mmHg 54%
04:00 +12°C° 0 mm 1 mps 753 mmHg 53%
05:00 +12°C° 0 mm 1 mps 753 mmHg 53%
06:00 +12°C° 0 mm 1 mps 753 mmHg 52%
07:00 +13°C° 0 mm 1 mps 753 mmHg 48%
08:00 +15°C° 0 mm 1 mps 754 mmHg 45%
09:00 +18°C° 0 mm 1 mps 754 mmHg 41%
10:00 +18°C° 0 mm 1 mps 754 mmHg 40%
11:00 +19°C° 0 mm 1 mps 754 mmHg 39%
12:00 +19°C° 0 mm 2 mps 753 mmHg 38%
13:00 +19°C° 0 mm 2 mps 753 mmHg 40%
14:00 +18°C° 0 mm 2 mps 752 mmHg 43%
15:00 +18°C° 0 mm 3 mps 751 mmHg 45%
16:00 +17°C° 0 mm 2 mps 751 mmHg 49%
17:00 +16°C° 0 mm 1 mps 751 mmHg 53%
18:00 +13°C° 0 mm 0 mps 751 mmHg 57%
19:00 +14°C° 0 mm 1 mps 751 mmHg 58%
20:00 +14°C° 0 mm 1 mps 752 mmHg 58%
21:00 +14°C° 0 mm 1 mps 752 mmHg 58%
22:00 +14°C° 0 mm 1 mps 752 mmHg 58%
23:00 +13°C° 0 mm 1 mps 752 mmHg 58%
Show more

We Need Your Consent

Meteoprog and our Service Providers may store and access personal data such as cookies, device identifiers or other similar technologies on your device and process such data to personalise content and ads, as well as provide social media features and to analyse the traffic.

  • Store and/or access information on your device

    Cookies, device identifiers or other information can be stored or accessed on your device for the purposes indicated above.

  • Personalised ads and content, ad and content measurement, audience insights, and products development

    Ads and content can be personalised based on a profile. More data can be added to better personalise ads and content. Ad and content performance can be measured. Insights about the audience who saw the ads and content can be derived. Such data can be used to develop or improve user’s experience, systems and software.

By clicking ‘I Agree’ you will allow the use of indicated cookies, device identifiers, web beacons or other similar technologies. Your settings can be changed in the browser on your device.

For certain purposes, legitimate interests may be relied on, rather than consent. You can read more about this in our Privacy and Cookie Policy.